�������l�o���
Date,Time,MP-1(��Sv/h),MP-2(��Sv/h),MP-3(��Sv/h),MP-4(��Sv/h),MP-5(��Sv/h),MP-6(��Sv/h),MP-7(��Sv/h),MP-8(��Sv/h),����,����(m/s),���J
2019/02/10,00:00,0.729,1.061,0.759,1.398,0.980,0.428,0.767,0.733,�k�k��,7.0,��
2019/02/10,00:10,0.729,1.061,0.759,1.398,0.984,0.429,0.768,0.733,�k�k��,6.8,��
2019/02/10,00:20,0.731,1.056,0.759,1.399,0.985,0.429,0.767,0.735,�k�k��,6.4,��
2019/02/10,00:30,0.731,1.057,0.758,1.398,0.985,0.429,0.769,0.733,�k�k��,5.9,��
2019/02/10,00:40,0.731,1.059,0.758,1.397,0.984,0.430,0.768,0.732,�k�k��,5.9,��
2019/02/10,00:50,0.729,1.058,0.756,1.397,0.986,0.428,0.767,0.734,�k�k��,6.3,��
2019/02/10,01:00,0.728,1.058,0.759,1.399,0.982,0.429,0.769,0.733,�k�k��,6.6,��
2019/02/10,01:10,0.728,1.059,0.759,1.398,0.984,0.430,0.767,0.734,�k�k��,6.2,��
2019/02/10,01:20,0.729,1.058,0.759,1.398,0.986,0.428,0.768,0.734,�k�k��,6.5,��
2019/02/10,01:30,0.730,1.061,0.758,1.397,0.984,0.430,0.768,0.734,�k�k��,7.3,��
2019/02/10,01:40,0.729,1.060,0.759,1.400,0.984,0.429,0.768,0.733,�k�k��,6.8,��
2019/02/10,01:50,0.731,1.058,0.757,1.400,0.984,0.428,0.768,0.735,�k�k��,6.1,��
2019/02/10,02:00,0.728,1.061,0.759,1.401,0.983,0.429,0.767,0.734,�k�k��,5.9,��
2019/02/10,02:10,0.729,1.060,0.759,1.399,0.984,0.429,0.767,0.736,�k�k��,4.6,��
2019/02/10,02:20,0.731,1.061,0.760,1.399,0.985,0.430,0.767,0.735,�k�k��,4.5,��
2019/02/10,02:30,0.732,1.061,0.760,1.400,0.983,0.430,0.768,0.734,�k�k��,4.1,��
2019/02/10,02:40,0.728,1.059,0.756,1.400,0.982,0.429,0.767,0.735,�k�k��,3.6,��
2019/02/10,02:50,0.729,1.060,0.761,1.401,0.982,0.428,0.769,0.735,�k�k��,5.0,��
2019/02/10,03:00,0.731,1.057,0.760,1.402,0.985,0.430,0.768,0.735,�k,5.5,��
2019/02/10,03:10,0.729,1.060,0.758,1.397,0.983,0.431,0.768,0.731,�k�k��,5.7,��
2019/02/10,03:20,0.729,1.059,0.757,1.399,0.985,0.427,0.766,0.733,�k�k��,5.9,��
2019/02/10,03:30,0.731,1.059,0.758,1.398,0.983,0.429,0.767,0.733,�k�k��,7.0,��
2019/02/10,03:40,0.729,1.061,0.759,1.399,0.982,0.429,0.766,0.734,�k�k��,7.6,��
2019/02/10,03:50,0.729,1.060,0.758,1.399,0.983,0.428,0.767,0.734,�k�k��,7.4,��
2019/02/10,04:00,0.729,1.059,0.758,1.400,0.983,0.428,0.768,0.735,�k,7.1,��
2019/02/10,04:10,0.730,1.059,0.757,1.400,0.982,0.429,0.768,0.733,�k�k��,8.3,��
2019/02/10,04:20,0.729,1.057,0.755,1.397,0.985,0.427,0.769,0.732,�k,8.0,��
2019/02/10,04:30,0.726,1.059,0.757,1.397,0.983,0.427,0.766,0.733,�k�k��,8.6,��
2019/02/10,04:40,0.729,1.060,0.756,1.398,0.982,0.428,0.769,0.733,�k��,7.7,��
2019/02/10,04:50,0.728,1.056,0.757,1.400,0.982,0.428,0.767,0.732,�k��,6.5,��
2019/02/10,05:00,0.730,1.057,0.755,1.398,0.983,0.427,0.767,0.733,�k��,6.9,��
2019/02/10,05:10,0.727,1.059,0.756,1.400,0.982,0.429,0.768,0.735,���k��,6.7,��
2019/02/10,05:20,0.730,1.057,0.756,1.399,0.982,0.427,0.768,0.735,�k��,6.4,��
2019/02/10,05:30,0.727,1.058,0.758,1.398,0.984,0.428,0.768,0.735,�k��,7.6,��
2019/02/10,05:40,0.729,1.062,0.757,1.400,0.980,0.428,0.767,0.732,�k��,7.5,��
2019/02/10,05:50,0.729,1.058,0.757,1.398,0.983,0.427,0.768,0.734,�k��,10.0,��
2019/02/10,06:00,0.730,1.059,0.758,1.400,0.983,0.428,0.767,0.735,���k��,7.4,��
2019/02/10,06:10,0.730,1.060,0.757,1.399,0.983,0.428,0.766,0.732,�k��,6.8,��
2019/02/10,06:20,0.729,1.058,0.758,1.398,0.981,0.427,0.768,0.734,�k�k��,5.0,��
2019/02/10,06:30,0.728,1.058,0.757,1.401,0.983,0.428,0.769,0.734,�k��,6.0,��
2019/02/10,06:40,0.728,1.061,0.759,1.399,0.984,0.428,0.767,0.733,�k��,5.6,��
2019/02/10,06:50,0.730,1.060,0.758,1.400,0.983,0.428,0.766,0.733,�k��,5.9,��
2019/02/10,07:00,0.729,1.059,0.759,1.401,0.984,0.428,0.766,0.733,�k��,6.6,��
2019/02/10,07:10,0.728,1.058,0.757,1.402,0.983,0.428,0.768,0.735,�k��,6.3,��
2019/02/10,07:20,0.730,1.059,0.760,1.400,0.983,0.428,0.768,0.734,�k��,6.6,��
2019/02/10,07:30,0.728,1.059,0.757,1.403,0.983,0.429,0.768,0.735,�k��,6.5,��
2019/02/10,07:40,0.729,1.060,0.759,1.400,0.984,0.427,0.767,0.735,�k�k��,6.7,��
2019/02/10,07:50,0.728,1.062,0.760,1.399,0.983,0.429,0.767,0.734,�k�k��,7.2,��
2019/02/10,08:00,0.729,1.062,0.757,1.402,0.985,0.427,0.769,0.734,�k�k��,5.9,��
2019/02/10,08:10,0.730,1.060,0.758,1.402,0.987,0.427,0.767,0.734,�k�k��,6.2,��
2019/02/10,08:20,0.730,1.062,0.758,1.402,0.985,0.428,0.768,0.735,�k�k��,4.6,�L
2019/02/10,08:30,0.732,1.062,0.757,1.402,0.983,0.429,0.767,0.734,�k�k��,4.5,��
2019/02/10,08:40,0.729,1.062,0.758,1.401,0.984,0.430,0.767,0.735,�k�k��,3.5,��
2019/02/10,08:50,0.730,1.060,0.759,1.402,0.985,0.429,0.769,0.733,�k�k��,3.4,��
2019/02/10,09:00,0.731,1.060,0.760,1.404,0.984,0.427,0.767,0.734,�k�k��,3.4,��
2019/02/10,09:10,0.731,1.064,0.760,1.404,0.985,0.430,0.769,0.734,�k�k��,2.6,��
2019/02/10,09:20,0.731,1.061,0.760,1.401,0.986,0.429,0.770,0.733,�k�k��,3.5,��
2019/02/10,09:30,0.730,1.064,0.760,1.403,0.984,0.430,0.770,0.734,�k��,1.9,��
2019/02/10,09:40,0.731,1.065,0.761,1.403,0.987,0.429,0.769,0.734,�k�k��,2.0,��
2019/02/10,09:50,0.730,1.063,0.760,1.403,0.985,0.428,0.767,0.734,�k�k��,2.2,��
2019/02/10,10:00,0.730,1.063,0.760,1.405,0.987,0.428,0.769,0.735,�k�k��,1.8,��
2019/02/10,10:10,0.732,1.065,0.762,1.404,0.985,0.431,0.770,0.736,�k,2.3,��
2019/02/10,10:20,0.734,1.062,0.761,1.404,0.985,0.429,0.769,0.735,�k�k��,2.6,��
2019/02/10,10:30,0.733,1.066,0.763,1.402,0.984,0.431,0.771,0.736,�k�k��,3.9,��
2019/02/10,10:40,0.735,1.067,0.762,1.406,0.988,0.431,0.771,0.735,�k,3.9,��
2019/02/10,10:50,0.733,1.067,0.762,1.406,0.988,0.430,0.772,0.734,�k,3.2,��
2019/02/10,11:00,0.734,1.067,0.764,1.405,0.988,0.430,0.769,0.735,�k�k��,2.9,��
2019/02/10,11:10,0.736,1.068,0.763,1.406,0.989,0.429,0.768,0.736,�k�k��,2.6,��
2019/02/10,11:20,0.734,1.066,0.763,1.403,0.990,0.431,0.769,0.735,�k,2.6,��
2019/02/10,11:30,0.735,1.068,0.762,1.405,0.990,0.430,0.770,0.735,�k��,2.3,��
2019/02/10,11:40,0.737,1.070,0.764,1.405,0.991,0.432,0.770,0.737,�k,2.8,�L
2019/02/10,11:50,0.736,1.070,0.765,1.407,0.992,0.430,0.769,0.736,�k,2.5,�L
2019/02/10,12:00,0.739,1.072,0.763,1.405,0.994,0.430,0.770,0.736,�k�k��,1.5,��
2019/02/10,12:10,0.738,1.075,0.766,1.409,0.993,0.429,0.770,0.735,���k��,3.8,��
2019/02/10,12:20,0.739,1.074,0.764,1.408,0.995,0.431,0.772,0.737,�k��,3.1,�L
2019/02/10,12:30,0.738,1.076,0.765,1.406,0.996,0.432,0.772,0.736,�k�k��,2.2,�L
2019/02/10,12:40,0.739,1.077,0.767,1.407,0.998,0.434,0.773,0.736,�k,0.9,�L
2019/02/10,12:50,0.741,1.078,0.766,1.407,0.998,0.432,0.771,0.737,�k��,0.6,��
2019/02/10,13:00,0.743,1.080,0.766,1.409,0.998,0.432,0.771,0.738,��,2.0,�L
2019/02/10,13:10,0.742,1.079,0.768,1.410,1.000,0.433,0.771,0.736,��쓌,1.5,�L
2019/02/10,13:20,0.743,1.080,0.767,1.410,1.003,0.432,0.774,0.737,��쓌,1.5,�L
2019/02/10,13:30,0.745,1.082,0.766,1.408,1.003,0.433,0.772,0.736,��쓌,1.9,�L
2019/02/10,13:40,0.746,1.084,0.768,1.409,1.002,0.433,0.774,0.736,��쓌,2.3,��
2019/02/10,13:50,0.746,1.084,0.769,1.406,1.004,0.434,0.776,0.737,���쓌,2.0,��
2019/02/10,14:00,0.746,1.085,0.770,1.410,1.007,0.434,0.776,0.739,���쓌,1.2,�L
2019/02/10,14:10,0.747,1.085,0.768,1.412,1.006,0.433,0.776,0.737,-,CALM,�L
2019/02/10,14:20,0.749,1.086,0.771,1.410,1.006,0.434,0.774,0.736,-,CALM,�L
2019/02/10,14:30,0.749,1.089,0.769,1.409,1.007,0.435,0.775,0.736,-,CALM,�L
2019/02/10,14:40,0.748,1.088,0.771,1.411,1.008,0.434,0.772,0.737,�쓌,2.2,�L
2019/02/10,14:50,0.747,1.088,0.770,1.411,1.006,0.433,0.775,0.735,��쓌,1.2,�L
2019/02/10,15:00,0.749,1.089,0.769,1.411,1.008,0.435,0.774,0.737,��쐼,1.2,��
2019/02/10,15:10,0.749,1.091,0.770,1.412,1.007,0.434,0.774,0.737,���쐼,1.4,��
2019/02/10,15:20,0.749,1.090,0.770,1.411,1.008,0.435,0.774,0.736,��,1.2,��
2019/02/10,15:30,0.750,1.091,0.770,1.410,1.009,0.434,0.775,0.738,�k,1.2,�L
2019/02/10,15:40,0.750,1.091,0.768,1.410,1.008,0.434,0.774,0.737,�k�k��,1.5,�L
2019/02/10,15:50,0.748,1.091,0.770,1.410,1.007,0.435,0.775,0.737,���k��,1.7,�L
2019/02/10,16:00,0.749,1.090,0.770,1.406,1.006,0.435,0.774,0.736,�k��,1.2,�L
2019/02/10,16:10,0.749,1.089,0.772,1.410,1.007,0.433,0.772,0.735,��쐼,0.6,�L
2019/02/10,16:20,0.751,1.090,0.770,1.409,1.004,0.433,0.774,0.737,�k��,1.2,��
2019/02/10,16:30,0.748,1.091,0.771,1.410,1.008,0.432,0.775,0.737,��,2.0,�L
2019/02/10,16:40,0.749,1.092,0.770,1.409,1.007,0.435,0.774,0.737,�k��,1.8,�L
2019/02/10,16:50,0.750,1.092,0.769,1.409,1.007,0.432,0.774,0.736,�k��,3.1,�L
2019/02/10,17:00,0.750,1.092,0.769,1.411,1.006,0.433,0.774,0.736,�k��,2.6,�L
2019/02/10,17:10,0.750,1.094,0.768,1.410,1.008,0.433,0.775,0.736,�k��,1.9,�L
2019/02/10,17:20,0.749,1.094,0.769,1.411,1.006,0.434,0.774,0.736,�k��,2.3,�L
2019/02/10,17:30,0.749,1.092,0.768,1.411,1.009,0.433,0.773,0.737,���k��,2.6,�L
2019/02/10,17:40,0.749,1.093,0.768,1.410,1.008,0.434,0.773,0.736,���k��,2.6,�L
2019/02/10,17:50,0.750,1.092,0.769,1.410,1.008,0.435,0.773,0.736,��,2.6,��
2019/02/10,18:00,0.750,1.092,0.770,1.408,1.010,0.435,0.774,0.735,���쐼,2.3,�L
2019/02/10,18:10,0.750,1.094,0.768,1.409,1.007,0.433,0.773,0.736,��,3.5,��
2019/02/10,18:20,0.749,1.091,0.769,1.411,1.009,0.432,0.773,0.736,��,3.6,��
2019/02/10,18:30,0.749,1.093,0.769,1.410,1.009,0.434,0.772,0.737,��,5.0,�L
2019/02/10,18:40,0.750,1.092,0.770,1.409,1.008,0.432,0.774,0.737,���k��,5.6,�L
2019/02/10,18:50,0.750,1.092,0.770,1.408,1.011,0.432,0.773,0.738,���k��,5.6,��
2019/02/10,19:00,0.749,1.094,0.770,1.409,1.009,0.433,0.772,0.736,�k��,4.8,��
2019/02/10,19:10,0.749,1.093,0.769,1.409,1.006,0.431,0.775,0.739,���k��,4.7,��
2019/02/10,19:20,0.747,1.093,0.769,1.409,1.006,0.433,0.773,0.735,���k��,5.1,��
2019/02/10,19:30,0.750,1.092,0.769,1.410,1.008,0.433,0.774,0.735,�k��,5.1,��
2019/02/10,19:40,0.749,1.093,0.769,1.410,1.009,0.433,0.776,0.735,�k��,5.3,��
2019/02/10,19:50,0.748,1.094,0.770,1.408,1.007,0.434,0.773,0.737,���k��,4.7,��
2019/02/10,20:00,0.748,1.094,0.770,1.411,1.009,0.431,0.773,0.736,���k��,3.1,��
2019/02/10,20:10,0.748,1.094,0.768,1.410,1.009,0.432,0.773,0.737,���쐼,2.3,��
2019/02/10,20:20,0.749,1.094,0.768,1.411,1.009,0.433,0.772,0.737,�쐼,1.9,��
2019/02/10,20:30,0.750,1.091,0.768,1.411,1.008,0.434,0.774,0.736,�쐼,2.3,��
2019/02/10,20:40,0.749,1.092,0.769,1.410,1.006,0.431,0.773,0.737,�쐼,2.3,��
2019/02/10,20:50,0.748,1.094,0.771,1.412,1.009,0.433,0.774,0.736,���쐼,2.2,��
2019/02/10,21:00,0.749,1.094,0.769,1.410,1.006,0.432,0.774,0.735,���쐼,2.2,��
2019/02/10,21:10,0.749,1.092,0.769,1.411,1.008,0.431,0.774,0.738,���쐼,1.8,��
2019/02/10,21:20,0.749,1.093,0.770,1.411,1.008,0.434,0.774,0.737,���쐼,2.9,��
2019/02/10,21:30,0.747,1.093,0.769,1.409,1.006,0.432,0.773,0.736,��,4.0,��
2019/02/10,21:40,0.749,1.093,0.767,1.411,1.008,0.434,0.775,0.735,���쐼,2.0,��
2019/02/10,21:50,0.749,1.092,0.769,1.410,1.008,0.431,0.773,0.734,���쐼,1.8,��
2019/02/10,22:00,0.749,1.092,0.770,1.411,1.008,0.432,0.773,0.737,�쐼,3.2,��
2019/02/10,22:10,0.748,1.092,0.770,1.412,1.007,0.432,0.774,0.736,��,3.8,��
2019/02/10,22:20,0.749,1.092,0.769,1.411,1.009,0.431,0.775,0.736,���k��,5.8,��
2019/02/10,22:30,0.749,1.094,0.769,1.413,1.009,0.430,0.774,0.737,���k��,5.5,��
2019/02/10,22:40,0.748,1.093,0.768,1.411,1.007,0.433,0.772,0.735,���k��,4.4,��
2019/02/10,22:50,0.749,1.093,0.770,1.407,1.006,0.432,0.774,0.735,���k��,2.8,��
2019/02/10,23:00,0.750,1.093,0.769,1.410,1.008,0.431,0.775,0.737,�k�k��,3.6,��
2019/02/10,23:10,0.748,1.094,0.769,1.412,1.008,0.431,0.774,0.736,�k��,4.7,��
2019/02/10,23:20,0.748,1.092,0.772,1.411,1.008,0.432,0.773,0.735,�k�k��,2.2,��
2019/02/10,23:30,0.748,1.093,0.769,1.410,1.009,0.431,0.774,0.736,�k,1.7,��
2019/02/10,23:40,0.749,1.090,0.768,1.411,1.007,0.431,0.773,0.738,�쓌,1.2,��
2019/02/10,23:50,0.748,1.092,0.770,1.409,1.009,0.434,0.774,0.736,�k�k��,0.9,��
